Regional Weather Roundup
Issued by NWS

Home | Current Version | Previous Version | Graphics & Text | Print | Product List | Glossary On
Versions: 1 2 3 4 5 6 7 8 9 10 11 12 13 14 15 16 17 18 19 20 21 22 23 24 25 26 27 28 29 30 31 32 33 34 35 36 37 38 39 40 41 42 43 44 45 46 47 48 49 50
000
ASUS45 KCYS 051010
RWRWY

WYOMING REGIONAL WEATHER ROUNDUP
NATIONAL WEATHER SERVICE CHEYENNE WY
300 AM MST FRI FEB 05 2016

NOTE:  "FAIR" INDICATES FEW OR NO CLOUDS BELOW 12,000 FEET
WITH NO SIGNIFICANT WEATHER AND/OR OBSTRUCTIONS TO VISIBILITY.

WYZ001-051100-
YELLOWSTONE NATIONAL PARK

CITY           SKY/WX    TMP DP  RH WIND       PRES   REMARKS
LK YELLOWSTONE   N/A      7   3  84 CALM      30.32R
W YELLOWSTONE  NOT AVBL

$$
WYZ002>013-054>058-071-098>099-051100-
NORTHERN WYOMING

CITY           SKY/WX    TMP DP  RH WIND       PRES   REMARKS
JACKSON        FAIR       9   9 100 N12       30.36R WCI  -6
CODY           FAIR      27   9  46 W5        30.24R WCI  21
GREYBULL       MOCLDY    16  12  84 SE3       30.29R
WORLAND        MOCLDY    14  10  84 S8        30.28R WCI   3
SHERIDAN       FAIR      29  23  78 W12       30.20S WCI  19
BUFFALO        FAIR      28  21  75 NW20G25   30.17R WCI  15
GILLETTE       CLOUDY    30  25  81 NW25G31   30.16F WCI  16
HULETT         LGT SNOW  30  28  93 W8        30.14R WCI  23
NEWCASTLE      FLURRIES  27  21  80 NW8       30.16S WCI  18

$$
WYZ014>020-022>026-101>103-051100-
CENTRAL WYOMING

CITY           SKY/WX    TMP DP  RH WIND       PRES   REMARKS
BIG PINEY      FAIR       6   2  83 NW12      30.31R WCI  -9
PINEDALE       FAIR      10   3  72 NW9       30.30R WCI  -2
DUBOIS         PTSUNNY   19   9  63 W16       30.25R WCI   5
LANDER         FAIR      18   1  47 W9        30.24R WCI   7
RIVERTON       FAIR      24   9  52 NW20      30.25R WCI  10
CASPER         CLOUDY    21  10  62 SW12      30.23R WCI   9
DOUGLAS        CLOUDY    22  13  68 NW14      30.22R WCI   9

$$
WYZ021-027>030-104>119-051100-
SOUTHERN WYOMING

CITY           SKY/WX    TMP DP  RH WIND       PRES   REMARKS
EVANSTON       CLOUDY    16  12  84 SW8       30.38R WCI   5
FORT BRIDGER   CLOUDY    19  19 100 W17G24    30.38R WCI   4
ROCK SPRINGS   FAIR      13   8  81 W16       30.31R WCI  -3
DIXON          FLURRIES  20  16  83 SW9       30.34R WCI   9
RAWLINS        FAIR      12   6  77 SW15      30.25R WCI  -4
SARATOGA       PTSUNNY   16  10  79 W9        30.26R WCI   4
LARAMIE        FAIR      14   3  61 S5        30.17R WCI   6
CHEYENNE       FAIR      23  10  57 NW16G28   30.16R WCI  10
TORRINGTON     FAIR      26  16  65 NW10      30.20R WCI  16
PINE BLUFFS    PTSUNNY   27  18  69 NW21G28   30.18R WCI  13

$$



USA.gov is the U.S. government's official web portal to all federal, state and local government web resources and services.